Year,Month,Day,Hour,Minute,Value (Times are PST for temperature in C)
2018,07,17,00,00,19.70
2018,07,17,00,01,19.60
2018,07,17,00,02,19.60
2018,07,17,00,03,19.60
2018,07,17,00,04,19.60
2018,07,17,00,05,19.60
2018,07,17,00,06,19.50
2018,07,17,00,07,19.50
2018,07,17,00,08,19.50
2018,07,17,00,09,19.50
2018,07,17,00,10,19.40
2018,07,17,00,11,19.40
2018,07,17,00,12,19.40
2018,07,17,00,13,19.40
2018,07,17,00,14,19.40
2018,07,17,00,15,19.30
2018,07,17,00,16,19.30
2018,07,17,00,17,19.30
2018,07,17,00,18,19.30
2018,07,17,00,19,19.20
2018,07,17,00,20,19.20
2018,07,17,00,21,19.20
2018,07,17,00,22,19.20
2018,07,17,00,23,19.20
2018,07,17,00,24,19.20
2018,07,17,00,25,19.20
2018,07,17,00,26,19.20
2018,07,17,00,27,19.10
2018,07,17,00,28,19.10
2018,07,17,00,29,19.10
2018,07,17,00,30,19.10
2018,07,17,00,31,19.10
2018,07,17,00,32,19.00
2018,07,17,00,33,19.00
2018,07,17,00,34,19.00
2018,07,17,00,35,18.90
2018,07,17,00,36,18.90
2018,07,17,00,37,18.90
2018,07,17,00,38,18.90
2018,07,17,00,39,18.90
2018,07,17,00,40,18.80
2018,07,17,00,41,18.80
2018,07,17,00,42,18.80
2018,07,17,00,43,18.80
2018,07,17,00,44,18.80
2018,07,17,00,45,18.80
2018,07,17,00,46,18.70
2018,07,17,00,47,18.70
2018,07,17,00,48,18.70
2018,07,17,00,49,18.70
2018,07,17,00,50,18.70
2018,07,17,00,51,18.70
2018,07,17,00,52,18.70
2018,07,17,00,53,18.60
2018,07,17,00,54,18.60
2018,07,17,00,55,18.60
2018,07,17,00,56,18.60
2018,07,17,00,57,18.60
2018,07,17,00,58,18.60
2018,07,17,00,59,18.50
2018,07,17,01,00,18.50
2018,07,17,01,01,18.50
2018,07,17,01,02,18.50
2018,07,17,01,03,18.40
2018,07,17,01,04,18.40
2018,07,17,01,05,18.40
2018,07,17,01,06,18.40
2018,07,17,01,07,18.40
2018,07,17,01,08,18.40
2018,07,17,01,09,18.40
2018,07,17,01,10,18.40
2018,07,17,01,11,18.30
2018,07,17,01,12,18.30
2018,07,17,01,13,18.40
2018,07,17,01,14,18.30
2018,07,17,01,15,18.30
2018,07,17,01,16,18.30
2018,07,17,01,17,18.30
2018,07,17,01,18,18.30
2018,07,17,01,19,18.30
2018,07,17,01,20,18.30
2018,07,17,01,21,18.20
2018,07,17,01,22,18.20
2018,07,17,01,23,18.20
2018,07,17,01,24,18.20
2018,07,17,01,25,18.10
2018,07,17,01,26,18.10
2018,07,17,01,27,18.10
2018,07,17,01,28,18.10
2018,07,17,01,29,18.10
2018,07,17,01,30,18.00
2018,07,17,01,31,18.00
2018,07,17,01,32,18.00
2018,07,17,01,33,18.00
2018,07,17,01,34,18.00
2018,07,17,01,35,17.90
2018,07,17,01,36,17.90
2018,07,17,01,37,17.90
2018,07,17,01,38,17.90
2018,07,17,01,39,17.90
2018,07,17,01,40,17.90
2018,07,17,01,41,17.90
2018,07,17,01,42,17.90
2018,07,17,01,43,17.90
2018,07,17,01,44,17.90
2018,07,17,01,45,17.80
2018,07,17,01,46,17.80
2018,07,17,01,47,17.80
2018,07,17,01,48,17.80
2018,07,17,01,49,17.80
2018,07,17,01,50,17.80
2018,07,17,01,51,17.70
2018,07,17,01,52,17.70
2018,07,17,01,53,17.70
2018,07,17,01,54,17.70
2018,07,17,01,55,17.70
2018,07,17,01,56,17.70
2018,07,17,01,57,17.70
2018,07,17,01,58,17.60
2018,07,17,01,59,17.60
2018,07,17,02,00,17.60
2018,07,17,02,01,17.60
2018,07,17,02,02,17.60
2018,07,17,02,03,17.60
2018,07,17,02,04,17.60
2018,07,17,02,05,17.50
2018,07,17,02,06,17.50
2018,07,17,02,07,17.50
2018,07,17,02,08,17.40
2018,07,17,02,09,17.40
2018,07,17,02,10,17.40
2018,07,17,02,11,17.40
2018,07,17,02,12,17.40
2018,07,17,02,13,17.30
2018,07,17,02,14,17.30
2018,07,17,02,15,17.30
2018,07,17,02,16,17.30
2018,07,17,02,17,17.30
2018,07,17,02,18,17.30
2018,07,17,02,19,17.30
2018,07,17,02,20,17.30
2018,07,17,02,21,17.30
2018,07,17,02,22,17.30
2018,07,17,02,23,17.20
2018,07,17,02,24,17.20
2018,07,17,02,25,17.20
2018,07,17,02,26,17.20
2018,07,17,02,27,17.20
2018,07,17,02,28,17.20
2018,07,17,02,29,17.20
2018,07,17,02,30,17.20
2018,07,17,02,31,17.20
2018,07,17,02,32,17.20
2018,07,17,02,33,17.20
2018,07,17,02,34,17.20
2018,07,17,02,35,17.10
2018,07,17,02,36,17.10
2018,07,17,02,37,17.10
2018,07,17,02,38,17.10
2018,07,17,02,39,17.10
2018,07,17,02,40,17.10
2018,07,17,02,41,17.10
2018,07,17,02,42,17.00
2018,07,17,02,43,17.00
2018,07,17,02,44,17.00
2018,07,17,02,45,17.00
2018,07,17,02,46,16.90
2018,07,17,02,47,16.90
2018,07,17,02,48,16.90
2018,07,17,02,49,16.90
2018,07,17,02,50,16.90
2018,07,17,02,51,16.90
2018,07,17,02,52,16.90
2018,07,17,02,53,16.90
2018,07,17,02,54,16.90
2018,07,17,02,55,16.90
2018,07,17,02,56,16.90
2018,07,17,02,57,16.90
2018,07,17,02,58,16.90
2018,07,17,02,59,16.90
2018,07,17,03,00,16.80
2018,07,17,03,01,16.80
2018,07,17,03,02,16.80
2018,07,17,03,03,16.80
2018,07,17,03,04,16.80
2018,07,17,03,05,16.80
2018,07,17,03,06,16.80
2018,07,17,03,07,16.70
2018,07,17,03,08,16.70
2018,07,17,03,09,16.70
2018,07,17,03,10,16.70
2018,07,17,03,11,16.70
2018,07,17,03,12,16.70
2018,07,17,03,13,16.70
2018,07,17,03,14,16.60
2018,07,17,03,15,16.60
2018,07,17,03,16,16.60
2018,07,17,03,17,16.60
2018,07,17,03,18,16.60
2018,07,17,03,19,16.60
2018,07,17,03,20,16.60
2018,07,17,03,21,16.60
2018,07,17,03,22,16.60
2018,07,17,03,23,16.60
2018,07,17,03,24,16.50
2018,07,17,03,25,16.50
2018,07,17,03,26,16.50
2018,07,17,03,27,16.40
2018,07,17,03,28,16.40
2018,07,17,03,29,16.40
2018,07,17,03,30,16.40
2018,07,17,03,31,16.40
2018,07,17,03,32,16.40
2018,07,17,03,33,16.30
2018,07,17,03,34,16.30
2018,07,17,03,35,16.30
2018,07,17,03,36,16.30
2018,07,17,03,37,16.30
2018,07,17,03,38,16.30
2018,07,17,03,39,16.20
2018,07,17,03,40,16.20
2018,07,17,03,41,16.20
2018,07,17,03,42,16.20
2018,07,17,03,43,16.20
2018,07,17,03,44,16.20
2018,07,17,03,45,16.20
2018,07,17,03,46,16.20
2018,07,17,03,47,16.20
2018,07,17,03,48,16.10
2018,07,17,03,49,16.10
2018,07,17,03,50,16.10
2018,07,17,03,51,16.10
2018,07,17,03,52,16.10
2018,07,17,03,53,16.10
2018,07,17,03,54,16.10
2018,07,17,03,55,16.10
2018,07,17,03,56,16.10
2018,07,17,03,57,16.10
2018,07,17,03,58,16.10
2018,07,17,03,59,16.10
2018,07,17,04,00,16.10
2018,07,17,04,01,16.10
2018,07,17,04,02,16.10
2018,07,17,04,03,16.00
2018,07,17,04,04,16.00
2018,07,17,04,05,16.00
2018,07,17,04,06,16.00
2018,07,17,04,07,15.90
2018,07,17,04,08,15.90
2018,07,17,04,09,15.90
2018,07,17,04,10,15.90
2018,07,17,04,11,15.90
2018,07,17,04,12,15.90
2018,07,17,04,13,15.90
2018,07,17,04,14,15.90
2018,07,17,04,15,15.90
2018,07,17,04,16,15.90
2018,07,17,04,17,15.90
2018,07,17,04,18,15.90
2018,07,17,04,19,15.90
2018,07,17,04,20,15.90
2018,07,17,04,21,15.90
2018,07,17,04,22,15.90
2018,07,17,04,23,15.90
2018,07,17,04,24,15.90
2018,07,17,04,25,15.90
2018,07,17,04,26,15.90
2018,07,17,04,27,15.90
2018,07,17,04,28,15.90
2018,07,17,04,29,15.90
2018,07,17,04,30,15.90
2018,07,17,04,31,15.90
2018,07,17,04,32,15.90
2018,07,17,04,33,15.90
2018,07,17,04,34,15.90
2018,07,17,04,35,15.90
2018,07,17,04,36,15.80
2018,07,17,04,37,15.80
2018,07,17,04,38,15.80
2018,07,17,04,39,15.80
2018,07,17,04,40,15.80
2018,07,17,04,41,15.80
2018,07,17,04,42,15.80
2018,07,17,04,43,15.70
2018,07,17,04,44,15.70
2018,07,17,04,45,15.70
2018,07,17,04,46,15.70
2018,07,17,04,47,15.70
2018,07,17,04,48,15.60
2018,07,17,04,49,15.60
2018,07,17,04,50,15.60
2018,07,17,04,51,15.60
2018,07,17,04,52,15.60
2018,07,17,04,53,15.60
2018,07,17,04,54,15.50
2018,07,17,04,55,15.50
2018,07,17,04,56,15.50
2018,07,17,04,57,15.50
2018,07,17,04,58,15.40
2018,07,17,04,59,15.40
2018,07,17,05,00,15.40
2018,07,17,05,01,15.40
2018,07,17,05,02,15.40
2018,07,17,05,03,15.40
2018,07,17,05,04,15.40
2018,07,17,05,05,15.40
2018,07,17,05,06,15.40
2018,07,17,05,07,15.40
2018,07,17,05,08,15.30
2018,07,17,05,09,15.30
2018,07,17,05,10,15.30
2018,07,17,05,11,15.30
2018,07,17,05,12,15.20
2018,07,17,05,13,15.20
2018,07,17,05,14,15.20
2018,07,17,05,15,15.10
2018,07,17,05,16,15.10
2018,07,17,05,17,15.10
2018,07,17,05,18,15.10
2018,07,17,05,19,15.10
2018,07,17,05,20,15.10
2018,07,17,05,21,15.10
2018,07,17,05,22,15.10
2018,07,17,05,23,15.10
2018,07,17,05,24,15.10
2018,07,17,05,25,15.10
2018,07,17,05,26,15.10
2018,07,17,05,27,15.10
2018,07,17,05,28,15.10
2018,07,17,05,29,15.10
2018,07,17,05,30,15.10
2018,07,17,05,31,15.10
2018,07,17,05,32,15.10
2018,07,17,05,33,15.10
2018,07,17,05,34,15.10
2018,07,17,05,35,15.10
2018,07,17,05,36,15.10
2018,07,17,05,37,15.10
2018,07,17,05,38,15.10
2018,07,17,05,39,15.10
2018,07,17,05,40,15.10
2018,07,17,05,41,15.10
2018,07,17,05,42,15.10
2018,07,17,05,43,15.10
2018,07,17,05,44,15.10
2018,07,17,05,45,15.10
2018,07,17,05,46,15.10
2018,07,17,05,47,15.10
2018,07,17,05,48,15.10
2018,07,17,05,49,15.10
2018,07,17,05,50,15.10
2018,07,17,05,51,15.10
2018,07,17,05,52,15.10
2018,07,17,05,53,15.00
2018,07,17,05,54,15.00
2018,07,17,05,55,15.00
2018,07,17,05,56,15.00
2018,07,17,05,57,15.00
2018,07,17,05,58,14.90
2018,07,17,05,59,14.90
2018,07,17,06,00,14.90
2018,07,17,06,01,14.90
2018,07,17,06,02,14.90
2018,07,17,06,03,14.90
2018,07,17,06,04,14.90
2018,07,17,06,05,14.90
2018,07,17,06,06,14.90
2018,07,17,06,07,14.90
2018,07,17,06,08,14.90
2018,07,17,06,09,14.90
2018,07,17,06,10,14.90
2018,07,17,06,11,14.90
2018,07,17,06,12,14.90
2018,07,17,06,13,14.90
2018,07,17,06,14,14.90
2018,07,17,06,15,14.90
2018,07,17,06,16,14.90
2018,07,17,06,17,14.90
2018,07,17,06,18,15.00
2018,07,17,06,19,15.00
2018,07,17,06,20,15.00
2018,07,17,06,21,15.00
2018,07,17,06,22,15.10
2018,07,17,06,23,15.10
2018,07,17,06,24,15.10
2018,07,17,06,25,15.10
2018,07,17,06,26,15.20
2018,07,17,06,27,15.20
2018,07,17,06,28,15.20
2018,07,17,06,29,15.20
2018,07,17,06,30,15.30
2018,07,17,06,31,15.30
2018,07,17,06,32,15.30
2018,07,17,06,33,15.30
2018,07,17,06,34,15.40
2018,07,17,06,35,15.40
2018,07,17,06,36,15.40
2018,07,17,06,37,15.40
2018,07,17,06,38,15.50
2018,07,17,06,39,15.50
2018,07,17,06,40,15.60
2018,07,17,06,41,15.60
2018,07,17,06,42,15.60
2018,07,17,06,43,15.70
2018,07,17,06,44,15.70
2018,07,17,06,45,15.80
2018,07,17,06,46,15.80
2018,07,17,06,47,15.90
2018,07,17,06,48,15.90
2018,07,17,06,49,16.00
2018,07,17,06,50,16.10
2018,07,17,06,51,16.20
2018,07,17,06,52,16.20
2018,07,17,06,53,16.30
2018,07,17,06,54,16.30
2018,07,17,06,55,16.40
2018,07,17,06,56,16.40
2018,07,17,06,57,16.40
2018,07,17,06,58,16.40
2018,07,17,06,59,16.50
2018,07,17,07,00,16.50
2018,07,17,07,01,16.60
2018,07,17,07,02,16.60
2018,07,17,07,03,16.60
2018,07,17,07,04,16.60
2018,07,17,07,05,16.60
2018,07,17,07,06,16.60
2018,07,17,07,07,16.60
2018,07,17,07,08,16.60
2018,07,17,07,09,16.60
2018,07,17,07,10,16.60
2018,07,17,07,11,16.60
2018,07,17,07,12,16.60
2018,07,17,07,13,16.60
2018,07,17,07,14,16.60
2018,07,17,07,15,16.60
2018,07,17,07,16,16.60
2018,07,17,07,17,16.60
2018,07,17,07,18,16.60
2018,07,17,07,19,16.60
2018,07,17,07,20,16.60
2018,07,17,07,21,16.60
2018,07,17,07,22,16.60
2018,07,17,07,23,16.60
2018,07,17,07,24,16.60
2018,07,17,07,25,16.70
2018,07,17,07,26,16.70
2018,07,17,07,27,16.80
2018,07,17,07,28,16.90
2018,07,17,07,29,16.90
2018,07,17,07,30,16.90
2018,07,17,07,31,17.00
2018,07,17,07,32,17.00
2018,07,17,07,33,17.00
2018,07,17,07,34,17.00
2018,07,17,07,35,17.00
2018,07,17,07,36,17.00
2018,07,17,07,37,17.00
2018,07,17,07,38,17.00
2018,07,17,07,39,16.90
2018,07,17,07,40,16.90
2018,07,17,07,41,16.90
2018,07,17,07,42,16.90
2018,07,17,07,43,16.90
2018,07,17,07,44,16.90
2018,07,17,07,45,16.90
2018,07,17,07,46,16.90
2018,07,17,07,47,16.90
2018,07,17,07,48,16.90
2018,07,17,07,49,16.90
2018,07,17,07,50,17.00
2018,07,17,07,51,17.00
2018,07,17,07,52,17.10
2018,07,17,07,53,17.10
2018,07,17,07,54,17.10
2018,07,17,07,55,17.10
2018,07,17,07,56,17.10
2018,07,17,07,57,17.20
2018,07,17,07,58,17.30
2018,07,17,07,59,17.30
2018,07,17,08,00,17.40
2018,07,17,08,01,17.50
2018,07,17,08,02,17.60
2018,07,17,08,03,17.70
2018,07,17,08,04,17.80
2018,07,17,08,05,17.80
2018,07,17,08,06,17.80
2018,07,17,08,07,17.90
2018,07,17,08,08,17.90
2018,07,17,08,09,17.90
2018,07,17,08,10,18.00
2018,07,17,08,11,18.00
2018,07,17,08,12,18.00
2018,07,17,08,13,18.10
2018,07,17,08,14,18.20
2018,07,17,08,15,18.30
2018,07,17,08,16,18.30
2018,07,17,08,17,18.30
2018,07,17,08,18,18.50
2018,07,17,08,19,18.50
2018,07,17,08,20,18.60
2018,07,17,08,21,18.70
2018,07,17,08,22,18.70
2018,07,17,08,23,18.70
2018,07,17,08,24,18.70
2018,07,17,08,25,18.70
2018,07,17,08,26,18.70
2018,07,17,08,27,18.70
2018,07,17,08,28,18.80
2018,07,17,08,29,18.80
2018,07,17,08,30,18.80
2018,07,17,08,31,18.80
2018,07,17,08,32,18.90
2018,07,17,08,33,18.90
2018,07,17,08,34,19.00
2018,07,17,08,35,19.10
2018,07,17,08,36,19.10
2018,07,17,08,37,19.10
2018,07,17,08,38,19.00
2018,07,17,08,39,19.00
2018,07,17,08,40,19.00
2018,07,17,08,41,19.00
2018,07,17,08,42,19.10
2018,07,17,08,43,19.10
2018,07,17,08,44,19.20
2018,07,17,08,45,19.30
2018,07,17,08,46,19.30
2018,07,17,08,47,19.30
2018,07,17,08,48,19.20
2018,07,17,08,49,19.20
2018,07,17,08,50,19.20
2018,07,17,08,51,19.30
2018,07,17,08,52,19.30
2018,07,17,08,53,19.40
2018,07,17,08,54,19.40
2018,07,17,08,55,19.40
2018,07,17,08,56,19.40
2018,07,17,08,57,19.40
2018,07,17,08,58,19.30
2018,07,17,08,59,19.30
2018,07,17,09,00,19.30
2018,07,17,09,01,19.30
2018,07,17,09,02,19.30
2018,07,17,09,03,19.20
2018,07,17,09,04,19.20
2018,07,17,09,05,19.20
2018,07,17,09,06,19.20
2018,07,17,09,07,19.20
2018,07,17,09,08,19.30
2018,07,17,09,09,19.20
2018,07,17,09,10,19.20
2018,07,17,09,11,19.20
2018,07,17,09,12,19.20
2018,07,17,09,13,19.10
2018,07,17,09,14,19.10
2018,07,17,09,15,19.10
2018,07,17,09,16,19.10
2018,07,17,09,17,19.30
2018,07,17,09,18,19.30
2018,07,17,09,19,19.30
2018,07,17,09,20,19.40
2018,07,17,09,21,19.50
2018,07,17,09,22,19.60
2018,07,17,09,23,19.70
2018,07,17,09,24,19.70
2018,07,17,09,25,19.70
2018,07,17,09,26,19.70
2018,07,17,09,27,19.70
2018,07,17,09,28,19.70
2018,07,17,09,29,19.70
2018,07,17,09,30,19.70
2018,07,17,09,31,19.70
2018,07,17,09,32,19.70
2018,07,17,09,33,19.80
2018,07,17,09,34,19.90
2018,07,17,09,35,20.00
2018,07,17,09,36,19.90
2018,07,17,09,37,19.90
2018,07,17,09,38,19.90
2018,07,17,09,39,19.90
2018,07,17,09,40,20.00
2018,07,17,09,41,19.90
2018,07,17,09,42,19.90
2018,07,17,09,43,20.00
2018,07,17,09,44,20.10
2018,07,17,09,45,20.20
2018,07,17,09,46,20.20
2018,07,17,09,47,20.30
2018,07,17,09,48,20.40
2018,07,17,09,49,20.40
2018,07,17,09,50,20.40
2018,07,17,09,51,20.40
2018,07,17,09,52,20.30
2018,07,17,09,53,20.20
2018,07,17,09,54,20.20
2018,07,17,09,55,20.20
2018,07,17,09,56,20.20
2018,07,17,09,57,20.10
2018,07,17,09,58,20.10
2018,07,17,09,59,20.00
2018,07,17,10,00,19.80
2018,07,17,10,01,19.70
2018,07,17,10,02,19.70
2018,07,17,10,03,19.60
2018,07,17,10,04,19.60
2018,07,17,10,05,19.70
2018,07,17,10,06,19.70
2018,07,17,10,07,19.80
2018,07,17,10,08,19.80
2018,07,17,10,09,19.90
2018,07,17,10,10,20.00
2018,07,17,10,11,20.00
2018,07,17,10,12,20.10
2018,07,17,10,13,20.30
2018,07,17,10,14,20.40
2018,07,17,10,15,20.40
2018,07,17,10,16,20.50
2018,07,17,10,17,20.60
2018,07,17,10,18,20.60
2018,07,17,10,19,20.70
2018,07,17,10,20,20.70
2018,07,17,10,21,20.70
2018,07,17,10,22,20.80
2018,07,17,10,23,20.80
2018,07,17,10,24,20.70
2018,07,17,10,25,20.60
2018,07,17,10,26,20.50
2018,07,17,10,27,20.40
2018,07,17,10,28,20.30
2018,07,17,10,29,20.30
2018,07,17,10,30,20.40
2018,07,17,10,31,20.50
2018,07,17,10,32,20.60
2018,07,17,10,33,20.70
2018,07,17,10,34,20.70
2018,07,17,10,35,20.80
2018,07,17,10,36,20.90
2018,07,17,10,37,21.00
2018,07,17,10,38,21.10
2018,07,17,10,39,21.20
2018,07,17,10,40,21.30
2018,07,17,10,41,21.40
2018,07,17,10,42,21.50
2018,07,17,10,43,21.50
2018,07,17,10,44,21.50
2018,07,17,10,45,21.50
2018,07,17,10,46,21.60
2018,07,17,10,47,21.60
2018,07,17,10,48,21.50
2018,07,17,10,49,21.50
2018,07,17,10,50,21.40
2018,07,17,10,51,21.40
2018,07,17,10,52,21.30
2018,07,17,10,53,21.30
2018,07,17,10,54,21.20
2018,07,17,10,55,21.10
2018,07,17,10,56,21.10
2018,07,17,10,57,21.10
2018,07,17,10,58,21.00
2018,07,17,10,59,21.00
2018,07,17,11,00,21.00
2018,07,17,11,01,21.10
2018,07,17,11,02,21.20
2018,07,17,11,03,21.20
2018,07,17,11,04,21.20
2018,07,17,11,05,21.10
2018,07,17,11,06,21.10
2018,07,17,11,07,21.00
2018,07,17,11,08,21.00
2018,07,17,11,09,21.10
2018,07,17,11,10,21.30
2018,07,17,11,11,21.40
2018,07,17,11,12,21.40
2018,07,17,11,13,21.40
2018,07,17,11,14,21.50
2018,07,17,11,15,21.60
2018,07,17,11,16,21.60
2018,07,17,11,17,21.60
2018,07,17,11,18,21.60
2018,07,17,11,19,21.70
2018,07,17,11,20,21.80
2018,07,17,11,21,21.90
2018,07,17,11,22,22.00
2018,07,17,11,23,22.20
2018,07,17,11,24,22.30
2018,07,17,11,25,22.30
2018,07,17,11,26,22.30
2018,07,17,11,27,22.30
2018,07,17,11,28,22.30
2018,07,17,11,29,22.20
2018,07,17,11,30,22.20
2018,07,17,11,31,22.20
2018,07,17,11,32,22.20
2018,07,17,11,33,22.20
2018,07,17,11,34,22.30
2018,07,17,11,35,22.40
2018,07,17,11,36,22.40
2018,07,17,11,37,22.60
2018,07,17,11,38,22.70
2018,07,17,11,39,22.90
2018,07,17,11,40,23.00
2018,07,17,11,41,23.10
2018,07,17,11,42,23.10
2018,07,17,11,43,23.10
2018,07,17,11,44,22.90
2018,07,17,11,45,22.90
2018,07,17,11,46,22.90
2018,07,17,11,47,22.80
2018,07,17,11,48,22.80
2018,07,17,11,49,22.70
2018,07,17,11,50,22.60
2018,07,17,11,51,22.60
2018,07,17,11,52,22.60
2018,07,17,11,53,22.60
2018,07,17,11,54,22.70
2018,07,17,11,55,22.70
2018,07,17,11,56,22.70
2018,07,17,11,57,22.80
2018,07,17,11,58,22.80
2018,07,17,11,59,22.80
2018,07,17,12,00,22.80
2018,07,17,12,01,22.90
2018,07,17,12,02,22.90
2018,07,17,12,03,22.80
2018,07,17,12,04,22.80
2018,07,17,12,05,22.70
2018,07,17,12,06,22.70
2018,07,17,12,07,22.70
2018,07,17,12,08,22.70
2018,07,17,12,09,22.80
2018,07,17,12,10,22.80
2018,07,17,12,11,22.70
2018,07,17,12,12,22.70
2018,07,17,12,13,22.70
2018,07,17,12,14,22.70
2018,07,17,12,15,22.70
2018,07,17,12,16,22.80
2018,07,17,12,17,22.90
2018,07,17,12,18,23.10
2018,07,17,12,19,23.20
2018,07,17,12,20,23.30
2018,07,17,12,21,23.30
2018,07,17,12,22,23.30
2018,07,17,12,23,23.30
2018,07,17,12,24,23.40
2018,07,17,12,25,23.50
2018,07,17,12,26,23.50
2018,07,17,12,27,23.60
2018,07,17,12,28,23.70
2018,07,17,12,29,23.80
2018,07,17,12,30,23.70
2018,07,17,12,31,23.70
2018,07,17,12,32,23.70
2018,07,17,12,33,23.60
2018,07,17,12,34,23.70
2018,07,17,12,35,23.70
2018,07,17,12,36,23.70
2018,07,17,12,37,23.70
2018,07,17,12,38,23.70
2018,07,17,12,39,23.70
2018,07,17,12,40,23.70
2018,07,17,12,41,23.70
2018,07,17,12,42,23.80
2018,07,17,12,43,23.90
2018,07,17,12,44,24.10
2018,07,17,12,45,24.20
2018,07,17,12,46,24.20
2018,07,17,12,47,24.20
2018,07,17,12,48,24.20
2018,07,17,12,49,24.20
2018,07,17,12,50,24.20
2018,07,17,12,51,24.20
2018,07,17,12,52,24.30
2018,07,17,12,53,24.30
2018,07,17,12,54,24.20
2018,07,17,12,55,24.20
2018,07,17,12,56,24.10
2018,07,17,12,57,24.20
2018,07,17,12,58,24.30
2018,07,17,12,59,24.40
2018,07,17,13,00,24.40
2018,07,17,13,01,24.30
2018,07,17,13,02,24.20
2018,07,17,13,03,24.20
2018,07,17,13,04,24.30
2018,07,17,13,05,24.30
2018,07,17,13,06,24.30
2018,07,17,13,07,24.40
2018,07,17,13,08,24.40
2018,07,17,13,09,24.30
2018,07,17,13,10,24.30
2018,07,17,13,11,24.30
2018,07,17,13,12,24.30
2018,07,17,13,13,24.30
2018,07,17,13,14,24.30
2018,07,17,13,15,24.40
2018,07,17,13,16,24.40
2018,07,17,13,17,24.60
2018,07,17,13,18,24.60
2018,07,17,13,19,24.70
2018,07,17,13,20,24.70
2018,07,17,13,21,24.80
2018,07,17,13,22,24.90
2018,07,17,13,23,25.10
2018,07,17,13,24,25.20
2018,07,17,13,25,25.20
2018,07,17,13,26,25.20
2018,07,17,13,27,25.20
2018,07,17,13,28,25.30
2018,07,17,13,29,25.30
2018,07,17,13,30,25.30
2018,07,17,13,31,25.20
2018,07,17,13,32,25.00
2018,07,17,13,33,25.00
2018,07,17,13,34,25.00
2018,07,17,13,35,25.10
2018,07,17,13,36,25.20
2018,07,17,13,37,25.20
2018,07,17,13,38,25.20
2018,07,17,13,39,25.20
2018,07,17,13,40,25.30
2018,07,17,13,41,25.30
2018,07,17,13,42,25.40
2018,07,17,13,43,25.40
2018,07,17,13,44,25.40
2018,07,17,13,45,25.30
2018,07,17,13,46,25.30
2018,07,17,13,47,25.30
2018,07,17,13,48,25.30
2018,07,17,13,49,25.30
2018,07,17,13,50,25.40
2018,07,17,13,51,25.40
2018,07,17,13,52,25.40
2018,07,17,13,53,25.40
2018,07,17,13,54,25.40
2018,07,17,13,55,25.40
2018,07,17,13,56,25.30
2018,07,17,13,57,25.30
2018,07,17,13,58,25.20
2018,07,17,13,59,25.20
2018,07,17,14,00,25.20
2018,07,17,14,01,25.20
2018,07,17,14,02,25.20
2018,07,17,14,03,25.30
2018,07,17,14,04,25.30
2018,07,17,14,05,25.40
2018,07,17,14,06,25.60
2018,07,17,14,07,25.60
2018,07,17,14,08,25.70
2018,07,17,14,09,25.80
2018,07,17,14,10,25.90
2018,07,17,14,11,26.00
2018,07,17,14,12,26.10
2018,07,17,14,13,26.10
2018,07,17,14,14,26.20
2018,07,17,14,15,26.20
2018,07,17,14,16,26.10
2018,07,17,14,17,26.20
2018,07,17,14,18,26.10
2018,07,17,14,19,26.10
2018,07,17,14,20,26.00
2018,07,17,14,21,26.00
2018,07,17,14,22,26.00
2018,07,17,14,23,25.90
2018,07,17,14,24,25.80
2018,07,17,14,25,25.80
2018,07,17,14,26,25.90
2018,07,17,14,27,25.90
2018,07,17,14,28,25.90
2018,07,17,14,29,25.90
2018,07,17,14,30,26.00
2018,07,17,14,31,26.10
2018,07,17,14,32,26.10
2018,07,17,14,33,26.10
2018,07,17,14,34,26.10
2018,07,17,14,35,26.20
2018,07,17,14,36,26.40
2018,07,17,14,37,26.50
2018,07,17,14,38,26.50
2018,07,17,14,39,26.50
2018,07,17,14,40,26.60
2018,07,17,14,41,26.60
2018,07,17,14,42,26.60
2018,07,17,14,43,26.60
2018,07,17,14,44,26.60
2018,07,17,14,45,26.60
2018,07,17,14,46,26.50
2018,07,17,14,47,26.50
2018,07,17,14,48,26.50
2018,07,17,14,49,26.40
2018,07,17,14,50,26.40
2018,07,17,14,51,26.50
2018,07,17,14,52,26.50
2018,07,17,14,53,26.70
2018,07,17,14,54,26.70
2018,07,17,14,55,26.70
2018,07,17,14,56,26.60
2018,07,17,14,57,26.70
2018,07,17,14,58,26.80
2018,07,17,14,59,26.90
2018,07,17,15,00,27.00
2018,07,17,15,01,27.00
2018,07,17,15,02,27.10
2018,07,17,15,03,27.10
2018,07,17,15,04,27.10
2018,07,17,15,05,27.10
2018,07,17,15,06,27.00
2018,07,17,15,07,26.90
2018,07,17,15,08,26.90
2018,07,17,15,09,26.90
2018,07,17,15,10,26.90
2018,07,17,15,11,26.90
2018,07,17,15,12,26.90
2018,07,17,15,13,26.90
2018,07,17,15,14,27.00
2018,07,17,15,15,27.10
2018,07,17,15,16,27.20
2018,07,17,15,17,27.30
2018,07,17,15,18,27.30
2018,07,17,15,19,27.40
2018,07,17,15,20,27.30
2018,07,17,15,21,27.40
2018,07,17,15,22,27.40
2018,07,17,15,23,27.40
2018,07,17,15,24,27.30
2018,07,17,15,25,27.30
2018,07,17,15,26,27.30
2018,07,17,15,27,27.30
2018,07,17,15,28,27.40
2018,07,17,15,29,27.40
2018,07,17,15,30,27.40
2018,07,17,15,31,27.40
2018,07,17,15,32,27.50
2018,07,17,15,33,27.60
2018,07,17,15,34,27.70
2018,07,17,15,35,27.70
2018,07,17,15,36,27.60
2018,07,17,15,37,27.50
2018,07,17,15,38,27.50
2018,07,17,15,39,27.40
2018,07,17,15,40,27.50
2018,07,17,15,41,27.60
2018,07,17,15,42,27.60
2018,07,17,15,43,27.80
2018,07,17,15,44,27.90
2018,07,17,15,45,28.10
2018,07,17,15,46,28.10
2018,07,17,15,47,28.00
2018,07,17,15,48,27.90
2018,07,17,15,49,27.80
2018,07,17,15,50,27.90
2018,07,17,15,51,27.80
2018,07,17,15,52,27.90
2018,07,17,15,53,28.00
2018,07,17,15,54,28.10
2018,07,17,15,55,28.20
2018,07,17,15,56,28.20
2018,07,17,15,57,28.20
2018,07,17,15,58,28.30
2018,07,17,15,59,28.40
2018,07,17,16,00,28.40
2018,07,17,16,01,28.50
2018,07,17,16,02,28.60
2018,07,17,16,03,28.60
2018,07,17,16,04,28.60
2018,07,17,16,05,28.70
2018,07,17,16,06,28.70
2018,07,17,16,07,28.70
2018,07,17,16,08,28.70
2018,07,17,16,09,28.70
2018,07,17,16,10,28.80
2018,07,17,16,11,28.80
2018,07,17,16,12,28.80
2018,07,17,16,13,28.80
2018,07,17,16,14,28.80
2018,07,17,16,15,28.80
2018,07,17,16,16,28.80
2018,07,17,16,17,28.80
2018,07,17,16,18,28.70
2018,07,17,16,19,28.70
2018,07,17,16,20,28.60
2018,07,17,16,21,28.70
2018,07,17,16,22,28.70
2018,07,17,16,23,28.70
2018,07,17,16,24,28.60
2018,07,17,16,25,28.60
2018,07,17,16,26,28.60
2018,07,17,16,27,28.60
2018,07,17,16,28,28.60
2018,07,17,16,29,28.70
2018,07,17,16,30,28.70
2018,07,17,16,31,28.70
2018,07,17,16,32,28.70
2018,07,17,16,33,28.80
2018,07,17,16,34,28.80
2018,07,17,16,35,28.70
2018,07,17,16,36,28.60
2018,07,17,16,37,28.50
2018,07,17,16,38,28.50
2018,07,17,16,39,28.50
2018,07,17,16,40,28.40
2018,07,17,16,41,28.40
2018,07,17,16,42,28.30
2018,07,17,16,43,28.30
2018,07,17,16,44,28.30
2018,07,17,16,45,28.40
2018,07,17,16,46,28.40
2018,07,17,16,47,28.50
2018,07,17,16,48,28.50
2018,07,17,16,49,28.50
2018,07,17,16,50,28.50
2018,07,17,16,51,28.50
2018,07,17,16,52,28.40
2018,07,17,16,53,28.30
2018,07,17,16,54,28.30
2018,07,17,16,55,28.30
2018,07,17,16,56,28.30
2018,07,17,16,57,28.20
2018,07,17,16,58,28.20
2018,07,17,16,59,28.20
2018,07,17,17,00,28.10
2018,07,17,17,01,28.10
2018,07,17,17,02,28.00
2018,07,17,17,03,28.00
2018,07,17,17,04,28.00
2018,07,17,17,05,28.10
2018,07,17,17,06,28.10
2018,07,17,17,07,28.10
2018,07,17,17,08,28.10
2018,07,17,17,09,28.10
2018,07,17,17,10,28.20
2018,07,17,17,11,28.30
2018,07,17,17,12,28.30
2018,07,17,17,13,28.40
2018,07,17,17,14,28.40
2018,07,17,17,15,28.40
2018,07,17,17,16,28.40
2018,07,17,17,17,28.40
2018,07,17,17,18,28.20
2018,07,17,17,19,28.20